Wetterdaten: Sonntag, 23.08.2015
Datum Zeit Temp. A. Feuchte A. Luftdruck Regen Wind Richtung Richtung Sonnenschein ET UV Solar Taupunkt Windchill Windben Empfang
23.08.2015 00:04 13,1 C 74 % 1016,4 hPa 0,0 l/m 0,0 km/h (0 Bft) NO 51 0 min 0,000 mm 0,0 UV-I 0 W/m 8,6 C 13,1 C 0,0 km/h (0 Bft) 0,00 %
23.08.2015 00:09 12,9 C 75 % 1016,4 hPa 0,0 l/m 0,0 km/h (0 Bft) O 80 0 min 0,000 mm 0,0 UV-I 0 W/m 8,6 C 12,9 C 0,0 km/h (0 Bft) 0,00 %
23.08.2015 00:14 12,8 C 75 % 1016,3 hPa 0,0 l/m 0,0 km/h (0 Bft) NO 49 0 min 0,000 mm 0,0 UV-I 0 W/m 8,5 C 12,8 C 0,0 km/h (0 Bft) 0,00 %
23.08.2015 00:19 12,8 C 75 % 1016,5 hPa 0,0 l/m 0,0 km/h (0 Bft) O 81 0 min 0,000 mm 0,0 UV-I 0 W/m 8,5 C 12,8 C 0,0 km/h (0 Bft) 0,00 %
23.08.2015 00:24 12,8 C 75 % 1016,3 hPa 0,0 l/m 0,0 km/h (0 Bft) O-SO 123 0 min 0,000 mm 0,0 UV-I 0 W/m 8,5 C 12,8 C 0,0 km/h (0 Bft) 0,00 %
23.08.2015 00:29 12,8 C 75 % 1016,1 hPa 0,0 l/m 0,4 km/h (0 Bft) O 88 0 min 0,000 mm 0,0 UV-I 0 W/m 8,5 C 12,8 C 4,0 km/h (1 Bft) 0,00 %
23.08.2015 00:34 12,8 C 75 % 1015,9 hPa 0,0 l/m 1,4 km/h (1 Bft) O 94 0 min 0,000 mm 0,0 UV-I 0 W/m 8,5 C 12,8 C 4,0 km/h (1 Bft) 0,00 %
23.08.2015 00:39 12,8 C 75 % 1015,9 hPa 0,0 l/m 0,0 km/h (0 Bft) O-SO 102 0 min 0,000 mm 0,0 UV-I 0 W/m 8,5 C 12,8 C 0,0 km/h (0 Bft) 0,00 %
23.08.2015 00:44 12,8 C 75 % 1016,2 hPa 0,0 l/m 0,0 km/h (0 Bft) O-SO 109 0 min 0,000 mm 0,0 UV-I 0 W/m 8,5 C 12,8 C 0,0 km/h (0 Bft) 0,00 %
23.08.2015 00:49 12,7 C 75 % 1015,9 hPa 0,0 l/m 0,4 km/h (0 Bft) NO 50 0 min 0,000 mm 0,0 UV-I 0 W/m 8,4 C 12,7 C 4,0 km/h (1 Bft) 0,00 %
23.08.2015 00:54 12,6 C 75 % 1016,0 hPa 0,0 l/m 0,0 km/h (0 Bft) O-NO 64 0 min 0,000 mm 0,0 UV-I 0 W/m 8,3 C 12,6 C 0,0 km/h (0 Bft) 0,00 %
23.08.2015 00:59 12,6 C 76 % 1015,7 hPa 0,0 l/m 0,0 km/h (0 Bft) S 180 0 min 0,000 mm 0,0 UV-I 0 W/m 8,5 C 12,6 C 0,0 km/h (0 Bft) 0,00 %
23.08.2015 01:04 12,6 C 76 % 1015,8 hPa 0,0 l/m 0,0 km/h (0 Bft) O 84 0 min 0,000 mm 0,0 UV-I 0 W/m 8,5 C 12,6 C 0,0 km/h (0 Bft) 0,00 %
23.08.2015 01:09 12,5 C 76 % 1015,7 hPa 0,0 l/m 0,0 km/h (0 Bft) O-NO 57 0 min 0,000 mm 0,0 UV-I 0 W/m 8,4 C 12,5 C 0,0 km/h (0 Bft) 0,00 %
23.08.2015 01:14 12,4 C 76 % 1015,7 hPa 0,0 l/m 0,0 km/h (0 Bft) O-NO 69 0 min 0,000 mm 0,0 UV-I 0 W/m 8,3 C 12,4 C 0,0 km/h (0 Bft) 0,00 %
23.08.2015 01:19 12,3 C 77 % 1015,7 hPa 0,0 l/m 0,0 km/h (0 Bft) O-NO 57 0 min 0,000 mm 0,0 UV-I 0 W/m 8,4 C 12,3 C 0,0 km/h (0 Bft) 0,00 %
23.08.2015 01:24 12,3 C 77 % 1015,5 hPa 0,0 l/m 0,4 km/h (0 Bft) O 85 0 min 0,000 mm 0,0 UV-I 0 W/m 8,4 C 12,3 C 4,0 km/h (1 Bft) 0,00 %
23.08.2015 01:29 12,3 C 77 % 1015,5 hPa 0,0 l/m 0,7 km/h (0 Bft) O-NO 67 0 min 0,000 mm 0,0 UV-I 0 W/m 8,4 C 12,3 C 4,0 km/h (1 Bft) 0,00 %
23.08.2015 01:34 12,3 C 77 % 1015,4 hPa 0,0 l/m 0,0 km/h (0 Bft) NO 49 0 min 0,000 mm 0,0 UV-I 0 W/m 8,4 C 12,3 C 0,0 km/h (0 Bft) 0,00 %
23.08.2015 01:39 12,3 C 77 % 1015,2 hPa 0,0 l/m 1,4 km/h (1 Bft) O 87 0 min 0,000 mm 0,0 UV-I 0 W/m 8,4 C 12,3 C 4,0 km/h (1 Bft) 0,00 %
23.08.2015 01:44 12,3 C 77 % 1015,1 hPa 0,0 l/m 0,0 km/h (0 Bft) NO 42 0 min 0,000 mm 0,0 UV-I 0 W/m 8,4 C 12,3 C 0,0 km/h (0 Bft) 0,00 %
23.08.2015 01:49 12,3 C 77 % 1015,1 hPa 0,0 l/m 0,0 km/h (0 Bft) O-NO 68 0 min 0,000 mm 0,0 UV-I 0 W/m 8,4 C 12,3 C 0,0 km/h (0 Bft) 0,00 %
23.08.2015 01:54 12,2 C 77 % 1015,0 hPa 0,0 l/m 0,0 km/h (0 Bft) O-NO 70 0 min 0,000 mm 0,0 UV-I 0 W/m 8,3 C 12,2 C 0,0 km/h (0 Bft) 0,00 %
23.08.2015 01:59 12,2 C 78 % 1014,9 hPa 0,0 l/m 0,0 km/h (0 Bft) O-NO 63 0 min 0,000 mm 0,0 UV-I 0 W/m 8,5 C 12,2 C 0,0 km/h (0 Bft) 0,00 %
23.08.2015 02:04 12,1 C 78 % 1015,0 hPa 0,0 l/m 0,0 km/h (0 Bft) NO 48 0 min 0,000 mm 0,0 UV-I 0 W/m 8,4 C 12,1 C 0,0 km/h (0 Bft) 0,00 %
23.08.2015 02:09 12,0 C 79 % 1014,7 hPa 0,0 l/m 0,4 km/h (0 Bft) O-NO 67 0 min 0,000 mm 0,0 UV-I 0 W/m 8,5 C 12,0 C 4,0 km/h (1 Bft) 0,00 %
23.08.2015 02:14 12,0 C 79 % 1014,9 hPa 0,0 l/m 0,0 km/h (0 Bft) O-NO 75 0 min 0,000 mm 0,0 UV-I 0 W/m 8,5 C 12,0 C 0,0 km/h (0 Bft) 0,00 %
23.08.2015 02:19 12,0 C 79 % 1014,8 hPa 0,0 l/m 3,2 km/h (1 Bft) O 97 0 min 0,000 mm 0,0 UV-I 0 W/m 8,5 C 12,0 C 7,9 km/h (2 Bft) 0,00 %
23.08.2015 02:24 12,0 C 79 % 1014,9 hPa 0,0 l/m 0,0 km/h (0 Bft) O-SO 110 0 min 0,000 mm 0,0 UV-I 0 W/m 8,5 C 12,0 C 0,0 km/h (0 Bft) 0,00 %
23.08.2015 02:29 11,9 C 79 % 1014,7 hPa 0,0 l/m 0,4 km/h (0 Bft) O-NO 68 0 min 0,000 mm 0,0 UV-I 0 W/m 8,4 C 11,9 C 4,0 km/h (1 Bft) 0,00 %
23.08.2015 02:34 11,9 C 79 % 1014,5 hPa 0,0 l/m 0,7 km/h (0 Bft) NO 51 0 min 0,000 mm 0,0 UV-I 0 W/m 8,4 C 11,9 C 4,0 km/h (1 Bft) 0,00 %
23.08.2015 02:39 12,0 C 79 % 1014,7 hPa 0,0 l/m 3,2 km/h (1 Bft) O 99 0 min 0,000 mm 0,0 UV-I 0 W/m 8,5 C 12,0 C 7,9 km/h (2 Bft) 0,00 %
23.08.2015 02:44 12,0 C 79 % 1014,7 hPa 0,0 l/m 0,0 km/h (0 Bft) O 98 0 min 0,000 mm 0,0 UV-I 0 W/m 8,5 C 12,0 C 0,0 km/h (0 Bft) 0,00 %
23.08.2015 02:49 12,1 C 79 % 1014,4 hPa 0,0 l/m 0,0 km/h (0 Bft) O-NO 57 0 min 0,000 mm 0,0 UV-I 0 W/m 8,6 C 12,1 C 0,0 km/h (0 Bft) 0,00 %
23.08.2015 02:54 12,2 C 79 % 1014,5 hPa 0,0 l/m 0,0 km/h (0 Bft) O-NO 75 0 min 0,000 mm 0,0 UV-I 0 W/m 8,7 C 12,2 C 0,0 km/h (0 Bft) 0,00 %
23.08.2015 02:59 12,1 C 80 % 1014,7 hPa 0,0 l/m 0,0 km/h (0 Bft) O 89 0 min 0,000 mm 0,0 UV-I 0 W/m 8,8 C 12,1 C 0,0 km/h (0 Bft) 0,00 %
23.08.2015 03:04 12,0 C 80 % 1014,3 hPa 0,0 l/m 0,0 km/h (0 Bft) O-NO 69 0 min 0,000 mm 0,0 UV-I 0 W/m 8,7 C 12,0 C 0,0 km/h (0 Bft) 0,00 %
23.08.2015 03:09 11,9 C 80 % 1014,4 hPa 0,0 l/m 1,8 km/h (1 Bft) O-SO 105 0 min 0,000 mm 0,0 UV-I 0 W/m 8,6 C 11,9 C 4,0 km/h (1 Bft) 0,00 %
23.08.2015 03:14 11,7 C 81 % 1014,2 hPa 0,0 l/m 0,0 km/h (0 Bft) N 357 0 min 0,000 mm 0,0 UV-I 0 W/m 8,5 C 11,7 C 0,0 km/h (0 Bft) 0,00 %
23.08.2015 03:19 11,6 C 81 % 1014,3 hPa 0,0 l/m 0,0 km/h (0 Bft) O 87 0 min 0,000 mm 0,0 UV-I 0 W/m 8,5 C 11,6 C 0,0 km/h (0 Bft) 0,00 %
23.08.2015 03:24 11,5 C 82 % 1014,3 hPa 0,0 l/m 0,0 km/h (0 Bft) NO 54 0 min 0,000 mm 0,0 UV-I 0 W/m 8,5 C 11,5 C 0,0 km/h (0 Bft) 0,00 %
23.08.2015 03:29 11,5 C 82 % 1014,1 hPa 0,0 l/m 1,4 km/h (1 Bft) S-SO 149 0 min 0,000 mm 0,0 UV-I 0 W/m 8,5 C 11,5 C 4,0 km/h (1 Bft) 0,00 %
23.08.2015 03:34 11,5 C 82 % 1014,1 hPa 0,0 l/m 0,0 km/h (0 Bft) NO 49 0 min 0,000 mm 0,0 UV-I 0 W/m 8,5 C 11,5 C 0,0 km/h (0 Bft) 0,00 %
23.08.2015 03:39 11,5 C 82 % 1014,1 hPa 0,0 l/m 0,4 km/h (0 Bft) O 83 0 min 0,000 mm 0,0 UV-I 0 W/m 8,5 C 11,5 C 4,0 km/h (1 Bft) 0,00 %
23.08.2015 03:44 11,6 C 82 % 1014,0 hPa 0,0 l/m 0,0 km/h (0 Bft) O-NO 61 0 min 0,000 mm 0,0 UV-I 0 W/m 8,6 C 11,6 C 0,0 km/h (0 Bft) 0,00 %
23.08.2015 03:49 11,5 C 82 % 1013,9 hPa 0,0 l/m 0,0 km/h (0 Bft) N-NO 25 0 min 0,000 mm 0,0 UV-I 0 W/m 8,5 C 11,5 C 0,0 km/h (0 Bft) 0,00 %
23.08.2015 03:54 11,5 C 83 % 1014,0 hPa 0,0 l/m 0,0 km/h (0 Bft) NO 46 0 min 0,000 mm 0,0 UV-I 0 W/m 8,7 C 11,5 C 0,0 km/h (0 Bft) 0,00 %
23.08.2015 03:59 11,3 C 83 % 1014,1 hPa 0,0 l/m 0,0 km/h (0 Bft) NO 49 0 min 0,000 mm 0,0 UV-I 0 W/m 8,5 C 11,3 C 0,0 km/h (0 Bft) 0,00 %
23.08.2015 04:04 11,2 C 84 % 1014,0 hPa 0,0 l/m 0,0 km/h (0 Bft) NO 55 0 min 0,000 mm 0,0 UV-I 0 W/m 8,6 C 11,2 C 0,0 km/h (0 Bft) 0,00 %
23.08.2015 04:09 11,1 C 84 % 1014,0 hPa 0,0 l/m 0,0 km/h (0 Bft) NO 53 0 min 0,000 mm 0,0 UV-I 0 W/m 8,5 C 11,1 C 0,0 km/h (0 Bft) 0,00 %
23.08.2015 04:14 11,0 C 86 % 1013,9 hPa 0,0 l/m 0,0 km/h (0 Bft) O-NO 61 0 min 0,000 mm 0,0 UV-I 0 W/m 8,7 C 11,0 C 0,0 km/h (0 Bft) 0,00 %
23.08.2015 04:19 10,9 C 87 % 1014,0 hPa 0,0 l/m 0,0 km/h (0 Bft) O-NO 70 0 min 0,000 mm 0,0 UV-I 0 W/m 8,8 C 10,9 C 0,0 km/h (0 Bft) 0,00 %
23.08.2015 04:24 10,8 C 87 % 1013,9 hPa 0,0 l/m 0,0 km/h (0 Bft) O 87 0 min 0,000 mm 0,0 UV-I 0 W/m 8,7 C 10,8 C 0,0 km/h (0 Bft) 0,00 %
23.08.2015 04:29 10,8 C 88 % 1013,9 hPa 0,0 l/m 0,0 km/h (0 Bft) NO 55 0 min 0,000 mm 0,0 UV-I 0 W/m 8,9 C 10,8 C 0,0 km/h (0 Bft) 0,00 %
23.08.2015 04:34 10,7 C 88 % 1013,7 hPa 0,0 l/m 0,0 km/h (0 Bft) O-NO 69 0 min 0,000 mm 0,0 UV-I 0 W/m 8,8 C 10,7 C 0,0 km/h (0 Bft) 0,00 %
23.08.2015 04:39 10,7 C 89 % 1013,8 hPa 0,0 l/m 0,4 km/h (0 Bft) O-NO 73 0 min 0,000 mm 0,0 UV-I 0 W/m 9,0 C 10,7 C 4,0 km/h (1 Bft) 0,00 %
23.08.2015 04:44 10,8 C 88 % 1013,8 hPa 0,0 l/m 0,4 km/h (0 Bft) O-SO 106 0 min 0,000 mm 0,0 UV-I 0 W/m 8,9 C 10,8 C 4,0 km/h (1 Bft) 0,00 %
23.08.2015 04:49 10,9 C 87 % 1013,7 hPa 0,0 l/m 1,8 km/h (1 Bft) O-NO 77 0 min 0,000 mm 0,0 UV-I 0 W/m 8,8 C 10,9 C 4,0 km/h (1 Bft) 0,00 %
23.08.2015 04:54 11,1 C 86 % 1013,5 hPa 0,0 l/m 1,8 km/h (1 Bft) O-SO 109 0 min 0,000 mm 0,0 UV-I 0 W/m 8,8 C 11,1 C 4,0 km/h (1 Bft) 0,00 %
23.08.2015 04:59 11,2 C 86 % 1013,5 hPa 0,0 l/m 0,0 km/h (0 Bft) NO 40 0 min 0,000 mm 0,0 UV-I 0 W/m 8,9 C 11,2 C 0,0 km/h (0 Bft) 0,00 %
23.08.2015 05:04 11,2 C 86 % 1013,7 hPa 0,0 l/m 0,0 km/h (0 Bft) NO 48 0 min 0,000 mm 0,0 UV-I 0 W/m 8,9 C 11,2 C 0,0 km/h (0 Bft) 0,00 %
23.08.2015 05:09 11,1 C 86 % 1013,3 hPa 0,0 l/m 0,0 km/h (0 Bft) O-SO 107 0 min 0,000 mm 0,0 UV-I 0 W/m 8,8 C 11,1 C 0,0 km/h (0 Bft) 0,00 %
23.08.2015 05:14 11,0 C 88 % 1013,3 hPa 0,0 l/m 0,0 km/h (0 Bft) O 99 0 min 0,000 mm 0,0 UV-I 0 W/m 9,1 C 11,0 C 0,0 km/h (0 Bft) 0,00 %
23.08.2015 05:19 10,8 C 89 % 1013,3 hPa 0,0 l/m 0,4 km/h (0 Bft) NO 45 0 min 0,000 mm 0,0 UV-I 0 W/m 9,1 C 10,8 C 4,0 km/h (1 Bft) 0,00 %
23.08.2015 05:24 10,7 C 89 % 1013,3 hPa 0,0 l/m 0,7 km/h (0 Bft) NO 43 0 min 0,000 mm 0,0 UV-I 0 W/m 9,0 C 10,7 C 4,0 km/h (1 Bft) 0,00 %
23.08.2015 05:29 10,7 C 89 % 1013,4 hPa 0,0 l/m 0,0 km/h (0 Bft) O-NO 64 0 min 0,000 mm 0,0 UV-I 0 W/m 9,0 C 10,7 C 0,0 km/h (0 Bft) 0,00 %
23.08.2015 05:34 10,7 C 89 % 1013,2 hPa 0,0 l/m 0,0 km/h (0 Bft) NO 54 0 min 0,000 mm 0,0 UV-I 0 W/m 9,0 C 10,7 C 0,0 km/h (0 Bft) 0,00 %
23.08.2015 05:39 10,7 C 90 % 1013,1 hPa 0,0 l/m 0,0 km/h (0 Bft) O-NO 76 0 min 0,000 mm 0,0 UV-I 0 W/m 9,1 C 10,7 C 0,0 km/h (0 Bft) 0,00 %
23.08.2015 05:44 10,7 C 90 % 1013,2 hPa 0,0 l/m 0,0 km/h (0 Bft) NO 55 0 min 0,000 mm 0,0 UV-I 0 W/m 9,1 C 10,7 C 0,0 km/h (0 Bft) 0,00 %
23.08.2015 05:49 10,7 C 90 % 1013,2 hPa 0,0 l/m 0,0 km/h (0 Bft) NO 54 0 min 0,000 mm 0,0 UV-I 0 W/m 9,1 C 10,7 C 0,0 km/h (0 Bft) 0,00 %
23.08.2015 05:54 10,7 C 90 % 1013,1 hPa 0,0 l/m 0,7 km/h (0 Bft) NO 43 0 min 0,000 mm 0,0 UV-I 0 W/m 9,1 C 10,7 C 4,0 km/h (1 Bft) 0,00 %
23.08.2015 05:59 10,7 C 90 % 1013,0 hPa 0,0 l/m 4,7 km/h (1 Bft) SO 124 0 min 0,000 mm 0,0 UV-I 0 W/m 9,1 C 10,7 C 7,9 km/h (2 Bft) 0,00 %
23.08.2015 06:04 10,7 C 90 % 1013,1 hPa 0,0 l/m 0,4 km/h (0 Bft) O-SO 114 0 min 0,000 mm 0,0 UV-I 0 W/m 9,1 C 10,7 C 4,0 km/h (1 Bft) 0,00 %
23.08.2015 06:09 10,7 C 90 % 1013,0 hPa 0,0 l/m 0,0 km/h (0 Bft) O 88 0 min 0,000 mm 0,0 UV-I 0 W/m 9,1 C 10,7 C 0,0 km/h (0 Bft) 0,00 %
23.08.2015 06:14 10,8 C 90 % 1012,9 hPa 0,0 l/m 0,0 km/h (0 Bft) NO 44 0 min 0,000 mm 0,0 UV-I 4 W/m 9,2 C 10,8 C 0,0 km/h (0 Bft) 0,00 %
23.08.2015 06:19 10,8 C 90 % 1012,8 hPa 0,0 l/m 0,0 km/h (0 Bft) O 98 0 min 0,000 mm 0,0 UV-I 8 W/m 9,2 C 10,8 C 0,0 km/h (0 Bft) 0,00 %
23.08.2015 06:24 10,8 C 90 % 1013,0 hPa 0,0 l/m 1,4 km/h (1 Bft) S 174 5 min 0,000 mm 0,0 UV-I 18 W/m 9,2 C 10,8 C 4,0 km/h (1 Bft) 0,00 %
23.08.2015 06:29 10,8 C 90 % 1012,9 hPa 0,0 l/m 3,2 km/h (1 Bft) O-SO 111 5 min 0,000 mm 0,0 UV-I 25 W/m 9,2 C 10,8 C 7,9 km/h (2 Bft) 0,00 %
23.08.2015 06:34 10,8 C 89 % 1013,1 hPa 0,0 l/m 0,0 km/h (0 Bft) NO 55 5 min 0,000 mm 0,0 UV-I 48 W/m 9,1 C 10,8 C 0,0 km/h (0 Bft) 0,00 %
23.08.2015 06:39 11,0 C 89 % 1012,9 hPa 0,0 l/m 0,4 km/h (0 Bft) SO 124 5 min 0,000 mm 0,0 UV-I 64 W/m 9,3 C 11,0 C 4,0 km/h (1 Bft) 0,00 %
23.08.2015 06:44 11,2 C 88 % 1013,0 hPa 0,0 l/m 2,2 km/h (1 Bft) SO 138 5 min 0,000 mm 0,0 UV-I 82 W/m 9,3 C 11,2 C 4,0 km/h (1 Bft) 0,00 %
23.08.2015 06:49 11,6 C 86 % 1013,2 hPa 0,0 l/m 0,0 km/h (0 Bft) O 88 5 min 0,000 mm 0,0 UV-I 96 W/m 9,3 C 11,6 C 0,0 km/h (0 Bft) 0,00 %
23.08.2015 06:54 12,0 C 85 % 1012,9 hPa 0,0 l/m 0,0 km/h (0 Bft) NO 54 5 min 0,000 mm 0,0 UV-I 110 W/m 9,6 C 12,0 C 0,0 km/h (0 Bft) 0,00 %
23.08.2015 06:59 12,4 C 83 % 1013,0 hPa 0,0 l/m 0,0 km/h (0 Bft) NO 34 5 min 0,000 mm 0,0 UV-I 122 W/m 9,6 C 12,4 C 0,0 km/h (0 Bft) 0,00 %
23.08.2015 07:04 12,7 C 81 % 1012,9 hPa 0,0 l/m 0,7 km/h (0 Bft) O 97 5 min 0,000 mm 0,0 UV-I 132 W/m 9,5 C 12,7 C 4,0 km/h (1 Bft) 0,00 %
23.08.2015 07:09 13,1 C 81 % 1012,7 hPa 0,0 l/m 3,2 km/h (1 Bft) O 86 5 min 0,000 mm 0,0 UV-I 141 W/m 9,9 C 13,1 C 7,9 km/h (2 Bft) 0,00 %
23.08.2015 07:14 13,5 C 79 % 1013,0 hPa 0,0 l/m 0,4 km/h (0 Bft) NO 41 5 min 0,000 mm 0,0 UV-I 145 W/m 9,9 C 13,5 C 4,0 km/h (1 Bft) 0,00 %
23.08.2015 07:19 13,7 C 77 % 1012,8 hPa 0,0 l/m 3,2 km/h (1 Bft) O-NO 72 5 min 0,000 mm 0,0 UV-I 148 W/m 9,7 C 13,7 C 4,0 km/h (1 Bft) 0,00 %
23.08.2015 07:24 13,9 C 77 % 1012,8 hPa 0,0 l/m 0,0 km/h (0 Bft) O-NO 65 5 min 0,000 mm 0,0 UV-I 150 W/m 9,9 C 13,9 C 0,0 km/h (0 Bft) 0,00 %
23.08.2015 07:29 13,9 C 77 % 1012,9 hPa 0,0 l/m 0,4 km/h (0 Bft) O 87 5 min 0,000 mm 0,0 UV-I 150 W/m 9,9 C 13,9 C 4,0 km/h (1 Bft) 0,00 %
23.08.2015 07:34 14,4 C 75 % 1012,9 hPa 0,0 l/m 0,0 km/h (0 Bft) O 79 5 min 0,000 mm 1,0 UV-I 151 W/m 10,0 C 14,4 C 0,0 km/h (0 Bft) 0,00 %
23.08.2015 07:39 14,6 C 73 % 1012,8 hPa 0,0 l/m 6,5 km/h (2 Bft) O-SO 110 5 min 0,000 mm 1,0 UV-I 151 W/m 9,8 C 14,6 C 7,9 km/h (2 Bft) 0,00 %
23.08.2015 07:44 14,8 C 73 % 1012,8 hPa 0,0 l/m 4,7 km/h (1 Bft) S-SO 164 5 min 0,000 mm 1,0 UV-I 152 W/m 10,0 C 14,8 C 11,9 km/h (2 Bft) 0,00 %
23.08.2015 07:49 14,8 C 72 % 1012,8 hPa 0,0 l/m 1,8 km/h (1 Bft) O 98 5 min 0,000 mm 1,0 UV-I 151 W/m 9,8 C 14,8 C 4,0 km/h (1 Bft) 0,00 %
23.08.2015 07:54 15,0 C 72 % 1012,9 hPa 0,0 l/m 4,7 km/h (1 Bft) O-NO 69 0 min 0,000 mm 1,0 UV-I 152 W/m 10,0 C 15,0 C 7,9 km/h (2 Bft) 0,00 %
23.08.2015 07:59 15,1 C 71 % 1012,9 hPa 0,0 l/m 2,2 km/h (1 Bft) O 82 0 min 0,000 mm 1,0 UV-I 156 W/m 9,9 C 15,1 C 4,0 km/h (1 Bft) 0,00 %
23.08.2015 08:04 15,3 C 71 % 1012,8 hPa 0,0 l/m 2,2 km/h (1 Bft) O-NO 70 0 min 0,000 mm 1,0 UV-I 161 W/m 10,1 C 15,3 C 4,0 km/h (1 Bft) 0,00 %
23.08.2015 08:09 15,4 C 71 % 1013,0 hPa 0,0 l/m 0,0 km/h (0 Bft) O-SO 109 0 min 0,000 mm 1,0 UV-I 166 W/m 10,2 C 15,4 C 0,0 km/h (0 Bft) 0,00 %
23.08.2015 08:14 15,6 C 70 % 1012,7 hPa 0,0 l/m 7,9 km/h (2 Bft) O-SO 116 0 min 0,000 mm 1,0 UV-I 172 W/m 10,1 C 14,8 C 11,9 km/h (2 Bft) 0,00 %
23.08.2015 08:19 15,8 C 69 % 1012,7 hPa 0,0 l/m 4,7 km/h (1 Bft) O-SO 112 0 min 0,000 mm 1,0 UV-I 179 W/m 10,1 C 15,8 C 7,9 km/h (2 Bft) 0,00 %
23.08.2015 08:24 16,0 C 68 % 1012,6 hPa 0,0 l/m 5,8 km/h (2 Bft) SO 146 0 min 0,000 mm 1,0 UV-I 184 W/m 10,1 C 16,0 C 11,9 km/h (2 Bft) 0,00 %
23.08.2015 08:29 16,1 C 68 % 1012,6 hPa 0,0 l/m 7,9 km/h (2 Bft) O-SO 108 0 min 0,000 mm 1,0 UV-I 190 W/m 10,2 C 15,3 C 15,8 km/h (3 Bft) 0,00 %
23.08.2015 08:34 16,1 C 68 % 1012,6 hPa 0,0 l/m 7,9 km/h (2 Bft) O 87 0 min 0,000 mm 1,0 UV-I 197 W/m 10,2 C 15,3 C 11,9 km/h (2 Bft) 0,00 %
23.08.2015 08:39 16,1 C 67 % 1012,6 hPa 0,0 l/m 13,0 km/h (3 Bft) SO 134 0 min 0,000 mm 1,0 UV-I 206 W/m 10,0 C 13,2 C 15,8 km/h (3 Bft) 0,00 %
23.08.2015 08:44 16,2 C 67 % 1012,5 hPa 0,0 l/m 4,0 km/h (1 Bft) O-SO 105 0 min 0,000 mm 1,0 UV-I 216 W/m 10,1 C 16,2 C 7,9 km/h (2 Bft) 0,00 %
23.08.2015 08:49 16,6 C 66 % 1012,4 hPa 0,0 l/m 6,8 km/h (2 Bft) O-SO 106 0 min 0,000 mm 1,0 UV-I 225 W/m 10,2 C 16,4 C 7,9 km/h (2 Bft) 0,00 %
23.08.2015 08:54 17,2 C 64 % 1012,5 hPa 0,0 l/m 5,4 km/h (1 Bft) O-NO 76 0 min 0,000 mm 1,0 UV-I 234 W/m 10,3 C 17,2 C 11,9 km/h (2 Bft) 0,00 %
23.08.2015 08:59 17,4 C 63 % 1012,6 hPa 0,0 l/m 5,8 km/h (2 Bft) O-NO 76 0 min 0,000 mm 1,0 UV-I 240 W/m 10,3 C 17,4 C 7,9 km/h (2 Bft) 0,00 %
23.08.2015 09:04 17,5 C 64 % 1012,6 hPa 0,0 l/m 1,8 km/h (1 Bft) N-NW 339 0 min 0,000 mm 1,0 UV-I 251 W/m 10,6 C 17,5 C 4,0 km/h (1 Bft) 0,00 %
23.08.2015 09:09 17,7 C 62 % 1012,5 hPa 0,0 l/m 4,3 km/h (1 Bft) W-SW 256 0 min 0,000 mm 1,0 UV-I 261 W/m 10,3 C 17,7 C 7,9 km/h (2 Bft) 0,00 %
23.08.2015 09:14 18,0 C 61 % 1012,4 hPa 0,0 l/m 5,4 km/h (1 Bft) O-SO 108 0 min 0,000 mm 1,0 UV-I 268 W/m 10,4 C 18,0 C 7,9 km/h (2 Bft) 0,00 %
23.08.2015 09:19 18,1 C 61 % 1012,3 hPa 0,0 l/m 7,9 km/h (2 Bft) SO 142 5 min 0,000 mm 1,0 UV-I 278 W/m 10,5 C 17,4 C 11,9 km/h (2 Bft) 0,00 %
23.08.2015 09:24 18,1 C 61 % 1012,4 hPa 0,0 l/m 2,2 km/h (1 Bft) O 90 5 min 0,000 mm 1,0 UV-I 289 W/m 10,5 C 18,1 C 7,9 km/h (2 Bft) 0,00 %
23.08.2015 09:29 18,2 C 60 % 1012,4 hPa 0,0 l/m 4,0 km/h (1 Bft) O-SO 110 5 min 0,000 mm 1,0 UV-I 298 W/m 10,3 C 18,2 C 7,9 km/h (2 Bft) 0,00 %
23.08.2015 09:34 18,3 C 61 % 1012,3 hPa 0,0 l/m 10,4 km/h (2 Bft) S 173 0 min 0,000 mm 2,0 UV-I 289 W/m 10,6 C 16,6 C 15,8 km/h (3 Bft) 0,00 %
23.08.2015 09:39 18,4 C 61 % 1012,2 hPa 0,0 l/m 7,9 km/h (2 Bft) O-SO 116 5 min 0,000 mm 2,0 UV-I 321 W/m 10,7 C 17,7 C 11,9 km/h (2 Bft) 0,00 %
23.08.2015 09:44 18,6 C 60 % 1012,2 hPa 0,0 l/m 0,7 km/h (0 Bft) NW 314 5 min 0,000 mm 2,0 UV-I 332 W/m 10,7 C 18,6 C 4,0 km/h (1 Bft) 0,00 %
23.08.2015 09:49 18,6 C 61 % 1012,0 hPa 0,0 l/m 1,8 km/h (1 Bft) O-NO 62 5 min 0,000 mm 2,0 UV-I 332 W/m 10,9 C 18,6 C 4,0 km/h (1 Bft) 0,00 %
23.08.2015 09:54 18,7 C 60 % 1012,1 hPa 0,0 l/m 7,2 km/h (2 Bft) SO 125 0 min 0,000 mm 1,0 UV-I 154 W/m 10,8 C 18,3 C 11,9 km/h (2 Bft) 0,00 %
23.08.2015 09:59 18,7 C 62 % 1012,2 hPa 0,0 l/m 9,4 km/h (2 Bft) O 90 0 min 0,000 mm 1,0 UV-I 298 W/m 11,3 C 17,4 C 15,8 km/h (3 Bft) 0,00 %
23.08.2015 10:04 18,7 C 61 % 1012,1 hPa 0,0 l/m 6,8 km/h (2 Bft) O-NO 65 5 min 0,000 mm 2,0 UV-I 377 W/m 11,0 C 18,5 C 11,9 km/h (2 Bft) 0,00 %
23.08.2015 10:09 19,0 C 58 % 1011,7 hPa 0,0 l/m 1,4 km/h (1 Bft) O-NO 61 5 min 0,000 mm 2,0 UV-I 392 W/m 10,5 C 19,0 C 4,0 km/h (1 Bft) 0,00 %
23.08.2015 10:14 19,5 C 55 % 1011,9 hPa 0,0 l/m 9,7 km/h (2 Bft) S-SO 161 5 min 0,000 mm 2,0 UV-I 407 W/m 10,2 C 18,2 C 15,8 km/h (3 Bft) 0,00 %
23.08.2015 10:20 19,9 C 54 % 1012,0 hPa 0,0 l/m 12,2 km/h (2 Bft) SO 143 6 min 0,000 mm 2,0 UV-I 421 W/m 10,3 C 17,9 C 19,8 km/h (3 Bft) 0,00 %
23.08.2015 10:25 20,2 C 53 % 1011,8 hPa 0,0 l/m 5,4 km/h (1 Bft) O-SO 118 5 min 0,000 mm 2,0 UV-I 433 W/m 10,3 C 20,2 C 7,9 km/h (2 Bft) 0,00 %
23.08.2015 10:30 20,5 C 52 % 1011,7 hPa 0,0 l/m 4,3 km/h (1 Bft) O 87 5 min 0,000 mm 2,0 UV-I 443 W/m 10,3 C 20,5 C 7,9 km/h (2 Bft) 0,00 %
23.08.2015 10:35 20,7 C 53 % 1011,7 hPa 0,0 l/m 4,0 km/h (1 Bft) O-NO 77 5 min 0,000 mm 2,0 UV-I 460 W/m 10,8 C 20,7 C 7,9 km/h (2 Bft) 0,00 %
23.08.2015 10:40 20,9 C 52 % 1011,5 hPa 0,0 l/m 1,8 km/h (1 Bft) O-NO 63 5 min 0,000 mm 2,0 UV-I 474 W/m 10,7 C 20,9 C 4,0 km/h (1 Bft) 0,00 %
23.08.2015 10:45 21,1 C 51 % 1011,5 hPa 0,0 l/m 3,2 km/h (1 Bft) NW 313 5 min 0,000 mm 2,0 UV-I 487 W/m 10,6 C 21,1 C 4,0 km/h (1 Bft) 0,00 %
23.08.2015 10:50 21,2 C 51 % 1011,5 hPa 0,0 l/m 3,2 km/h (1 Bft) O-SO 122 5 min 0,000 mm 2,0 UV-I 500 W/m 10,7 C 21,2 C 7,9 km/h (2 Bft) 0,00 %
23.08.2015 10:55 21,3 C 50 % 1011,3 hPa 0,0 l/m 5,4 km/h (1 Bft) NO 49 5 min 0,000 mm 2,0 UV-I 515 W/m 10,4 C 21,3 C 11,9 km/h (2 Bft) 0,00 %
23.08.2015 11:00 21,5 C 50 % 1011,5 hPa 0,0 l/m 4,0 km/h (1 Bft) O 84 5 min 0,000 mm 2,0 UV-I 526 W/m 10,6 C 21,5 C 7,9 km/h (2 Bft) 0,00 %
23.08.2015 11:05 21,7 C 49 % 1011,4 hPa 0,0 l/m 4,7 km/h (1 Bft) O 93 5 min 0,000 mm 3,0 UV-I 544 W/m 10,5 C 21,7 C 7,9 km/h (2 Bft) 0,00 %
23.08.2015 11:10 22,0 C 50 % 1011,3 hPa 0,0 l/m 4,3 km/h (1 Bft) O-NO 75 5 min 0,000 mm 3,0 UV-I 549 W/m 11,1 C 22,0 C 7,9 km/h (2 Bft) 0,00 %
23.08.2015 11:15 22,1 C 50 % 1011,2 hPa 0,0 l/m 3,2 km/h (1 Bft) N 11 5 min 0,000 mm 3,0 UV-I 571 W/m 11,2 C 22,1 C 4,0 km/h (1 Bft) 0,00 %
23.08.2015 11:20 22,0 C 50 % 1011,2 hPa 0,0 l/m 5,4 km/h (1 Bft) O-SO 118 5 min 0,000 mm 3,0 UV-I 586 W/m 11,1 C 22,0 C 7,9 km/h (2 Bft) 0,00 %
23.08.2015 11:25 22,2 C 49 % 1011,3 hPa 0,0 l/m 2,2 km/h (1 Bft) SO 132 5 min 0,000 mm 3,0 UV-I 600 W/m 11,0 C 22,2 C 4,0 km/h (1 Bft) 0,00 %
23.08.2015 11:30 22,4 C 49 % 1011,1 hPa 0,0 l/m 0,7 km/h (0 Bft) O-SO 108 5 min 0,000 mm 3,0 UV-I 611 W/m 11,2 C 22,4 C 4,0 km/h (1 Bft) 0,00 %
23.08.2015 11:35 22,5 C 47 % 1011,1 hPa 0,0 l/m 1,4 km/h (1 Bft) O 90 5 min 0,000 mm 3,0 UV-I 626 W/m 10,6 C 22,5 C 4,0 km/h (1 Bft) 0,00 %
23.08.2015 11:40 22,6 C 47 % 1011,1 hPa 0,0 l/m 0,0 km/h (0 Bft) SW 227 5 min 0,000 mm 3,0 UV-I 642 W/m 10,7 C 22,6 C 0,0 km/h (0 Bft) 0,00 %
23.08.2015 11:45 22,7 C 46 % 1010,9 hPa 0,0 l/m 2,9 km/h (1 Bft) O 92 5 min 0,000 mm 3,0 UV-I 646 W/m 10,5 C 22,7 C 4,0 km/h (1 Bft) 0,00 %
23.08.2015 11:50 23,0 C 45 % 1011,0 hPa 0,0 l/m 7,2 km/h (2 Bft) O-SO 121 5 min 0,000 mm 3,0 UV-I 663 W/m 10,4 C 22,7 C 11,9 km/h (2 Bft) 0,00 %
23.08.2015 11:55 23,0 C 47 % 1011,0 hPa 0,0 l/m 4,0 km/h (1 Bft) S 176 5 min 0,000 mm 3,0 UV-I 665 W/m 11,1 C 23,0 C 7,9 km/h (2 Bft) 0,00 %
23.08.2015 12:00 23,1 C 46 % 1010,8 hPa 0,0 l/m 2,9 km/h (1 Bft) S 169 5 min 0,000 mm 3,0 UV-I 683 W/m 10,8 C 23,1 C 7,9 km/h (2 Bft) 0,00 %
23.08.2015 12:05 23,3 C 46 % 1010,8 hPa 0,0 l/m 5,4 km/h (1 Bft) SO 144 5 min 0,000 mm 3,0 UV-I 696 W/m 11,0 C 23,3 C 7,9 km/h (2 Bft) 0,00 %
23.08.2015 12:10 23,3 C 46 % 1010,7 hPa 0,0 l/m 7,9 km/h (2 Bft) O 93 5 min 0,000 mm 3,0 UV-I 698 W/m 11,0 C 22,8 C 11,9 km/h (2 Bft) 0,00 %
23.08.2015 12:15 23,3 C 46 % 1010,6 hPa 0,0 l/m 5,8 km/h (2 Bft) O 101 5 min 0,000 mm 3,0 UV-I 710 W/m 11,0 C 23,3 C 7,9 km/h (2 Bft) 0,00 %
23.08.2015 12:20 23,5 C 45 % 1010,6 hPa 0,0 l/m 5,4 km/h (1 Bft) N-NW 346 5 min 0,000 mm 3,0 UV-I 715 W/m 10,9 C 23,5 C 7,9 km/h (2 Bft) 0,00 %
23.08.2015 12:25 23,6 C 45 % 1010,5 hPa 0,0 l/m 14,0 km/h (3 Bft) O 85 5 min 0,000 mm 3,0 UV-I 720 W/m 11,0 C 21,8 C 15,8 km/h (3 Bft) 0,00 %
23.08.2015 12:30 23,4 C 46 % 1010,4 hPa 0,0 l/m 4,3 km/h (1 Bft) S 180 5 min 0,000 mm 4,0 UV-I 737 W/m 11,1 C 23,4 C 7,9 km/h (2 Bft) 0,00 %
23.08.2015 12:35 23,5 C 45 % 1010,6 hPa 0,0 l/m 6,8 km/h (2 Bft) O-SO 110 5 min 0,000 mm 4,0 UV-I 735 W/m 10,9 C 23,4 C 11,9 km/h (2 Bft) 0,00 %
23.08.2015 12:40 23,7 C 44 % 1010,7 hPa 0,0 l/m 3,2 km/h (1 Bft) NO 51 5 min 0,000 mm 4,0 UV-I 742 W/m 10,7 C 23,7 C 7,9 km/h (2 Bft) 0,00 %
23.08.2015 12:45 23,8 C 45 % 1010,6 hPa 0,0 l/m 0,0 km/h (0 Bft) N-NO 20 5 min 0,000 mm 4,0 UV-I 747 W/m 11,1 C 23,8 C 0,0 km/h (0 Bft) 0,00 %
23.08.2015 12:50 23,8 C 46 % 1010,6 hPa 0,0 l/m 0,4 km/h (0 Bft) S 182 5 min 0,000 mm 4,0 UV-I 745 W/m 11,5 C 23,8 C 4,0 km/h (1 Bft) 0,00 %
23.08.2015 12:55 23,9 C 43 % 1010,5 hPa 0,0 l/m 3,2 km/h (1 Bft) SW 216 5 min 0,000 mm 4,0 UV-I 746 W/m 10,5 C 23,9 C 7,9 km/h (2 Bft) 0,00 %
23.08.2015 13:00 24,1 C 43 % 1010,4 hPa 0,0 l/m 6,8 km/h (2 Bft) SO 143 5 min 0,000 mm 4,0 UV-I 749 W/m 10,7 C 24,0 C 7,9 km/h (2 Bft) 0,00 %
23.08.2015 13:05 24,1 C 43 % 1010,3 hPa 0,0 l/m 14,0 km/h (3 Bft) O-NO 71 5 min 0,000 mm 4,0 UV-I 754 W/m 10,7 C 22,4 C 15,8 km/h (3 Bft) 0,00 %
23.08.2015 13:10 24,0 C 44 % 1010,4 hPa 0,0 l/m 0,7 km/h (0 Bft) O-SO 114 5 min 0,000 mm 4,0 UV-I 768 W/m 11,0 C 24,0 C 4,0 km/h (1 Bft) 0,00 %
23.08.2015 13:15 24,1 C 44 % 1010,1 hPa 0,0 l/m 5,8 km/h (2 Bft) O-NO 76 5 min 0,000 mm 4,0 UV-I 773 W/m 11,1 C 24,1 C 7,9 km/h (2 Bft) 0,00 %
23.08.2015 13:20 24,3 C 43 % 1010,1 hPa 0,0 l/m 2,2 km/h (1 Bft) O 91 5 min 0,000 mm 3,0 UV-I 655 W/m 10,9 C 24,3 C 4,0 km/h (1 Bft) 0,00 %
23.08.2015 13:25 24,3 C 43 % 1010,1 hPa 0,0 l/m 8,3 km/h (2 Bft) S 182 5 min 0,000 mm 3,0 UV-I 607 W/m 10,9 C 23,8 C 11,9 km/h (2 Bft) 0,00 %
23.08.2015 13:30 24,3 C 43 % 1010,1 hPa 0,0 l/m 2,2 km/h (1 Bft) O-NO 61 5 min 0,000 mm 3,0 UV-I 681 W/m 10,9 C 24,3 C 4,0 km/h (1 Bft) 0,00 %
23.08.2015 13:35 24,2 C 44 % 1010,2 hPa 0,0 l/m 7,2 km/h (2 Bft) O 96 5 min 0,000 mm 4,0 UV-I 865 W/m 11,2 C 24,0 C 15,8 km/h (3 Bft) 0,00 %
23.08.2015 13:40 24,4 C 42 % 1010,2 hPa 0,0 l/m 6,8 km/h (2 Bft) O 91 5 min 0,000 mm 4,0 UV-I 829 W/m 10,6 C 24,3 C 11,9 km/h (2 Bft) 0,00 %
23.08.2015 13:45 24,6 C 42 % 1010,1 hPa 0,0 l/m 4,3 km/h (1 Bft) SO 131 5 min 0,000 mm 4,0 UV-I 724 W/m 10,8 C 24,6 C 7,9 km/h (2 Bft) 0,00 %
23.08.2015 13:50 24,8 C 42 % 1010,1 hPa 0,0 l/m 4,7 km/h (1 Bft) O-NO 60 5 min 0,000 mm 4,0 UV-I 868 W/m 11,0 C 24,8 C 7,9 km/h (2 Bft) 0,00 %
23.08.2015 13:55 24,8 C 42 % 1010,0 hPa 0,0 l/m 9,7 km/h (2 Bft) O-SO 113 0 min 0,000 mm 2,0 UV-I 353 W/m 11,0 C 24,0 C 11,9 km/h (2 Bft) 0,00 %
23.08.2015 14:00 24,6 C 43 % 1010,0 hPa 0,0 l/m 5,8 km/h (2 Bft) O 94 5 min 0,000 mm 3,0 UV-I 837 W/m 11,2 C 24,6 C 7,9 km/h (2 Bft) 0,00 %
23.08.2015 14:05 24,6 C 42 % 1010,0 hPa 0,0 l/m 3,2 km/h (1 Bft) O 80 5 min 0,000 mm 4,0 UV-I 883 W/m 10,8 C 24,6 C 7,9 km/h (2 Bft) 0,00 %
23.08.2015 14:10 25,1 C 40 % 1009,8 hPa 0,0 l/m 6,5 km/h (2 Bft) O 96 5 min 0,000 mm 3,0 UV-I 874 W/m 10,5 C 25,1 C 7,9 km/h (2 Bft) 0,00 %
23.08.2015 14:15 25,4 C 40 % 1009,6 hPa 0,0 l/m 5,4 km/h (1 Bft) O 101 5 min 0,000 mm 3,0 UV-I 843 W/m 10,8 C 25,4 C 11,9 km/h (2 Bft) 0,00 %
23.08.2015 14:20 25,5 C 41 % 1009,7 hPa 0,0 l/m 6,8 km/h (2 Bft) NO 55 5 min 0,000 mm 3,0 UV-I 829 W/m 11,3 C 25,4 C 7,9 km/h (2 Bft) 0,00 %
23.08.2015 14:25 25,5 C 40 % 1009,7 hPa 0,0 l/m 4,3 km/h (1 Bft) N-NO 29 5 min 0,000 mm 3,0 UV-I 828 W/m 10,9 C 25,5 C 7,9 km/h (2 Bft) 0,00 %
23.08.2015 14:30 25,5 C 40 % 1009,5 hPa 0,0 l/m 7,2 km/h (2 Bft) SO 142 5 min 0,000 mm 3,0 UV-I 820 W/m 10,9 C 25,3 C 11,9 km/h (2 Bft) 0,00 %
23.08.2015 14:35 25,5 C 40 % 1009,5 hPa 0,0 l/m 4,3 km/h (1 Bft) O-NO 70 5 min 0,000 mm 3,0 UV-I 818 W/m 10,9 C 25,5 C 7,9 km/h (2 Bft) 0,00 %
23.08.2015 14:40 25,6 C 40 % 1009,4 hPa 0,0 l/m 2,2 km/h (1 Bft) O 99 5 min 0,000 mm 3,0 UV-I 824 W/m 11,0 C 25,6 C 4,0 km/h (1 Bft) 0,00 %
23.08.2015 14:45 25,7 C 39 % 1009,4 hPa 0,0 l/m 7,9 km/h (2 Bft) O-NO 70 5 min 0,000 mm 3,0 UV-I 822 W/m 10,7 C 25,4 C 11,9 km/h (2 Bft) 0,00 %
23.08.2015 14:50 25,7 C 39 % 1009,4 hPa 0,0 l/m 18,4 km/h (3 Bft) SO 134 5 min 0,000 mm 3,0 UV-I 819 W/m 10,7 C 23,7 C 24,1 km/h (4 Bft) 0,00 %
23.08.2015 14:55 25,6 C 40 % 1009,1 hPa 0,0 l/m 0,7 km/h (0 Bft) O 79 5 min 0,000 mm 3,0 UV-I 812 W/m 11,0 C 25,6 C 4,0 km/h (1 Bft) 0,00 %
23.08.2015 15:00 25,6 C 41 % 1009,3 hPa 0,0 l/m 4,7 km/h (1 Bft) O 91 5 min 0,000 mm 3,0 UV-I 818 W/m 11,4 C 25,6 C 7,9 km/h (2 Bft) 0,00 %
23.08.2015 15:05 25,8 C 40 % 1009,2 hPa 0,0 l/m 4,7 km/h (1 Bft) N 356 5 min 0,000 mm 3,0 UV-I 814 W/m 11,2 C 25,8 C 7,9 km/h (2 Bft) 0,00 %
23.08.2015 15:10 25,8 C 40 % 1009,1 hPa 0,0 l/m 1,4 km/h (1 Bft) O-SO 105 5 min 0,000 mm 3,0 UV-I 802 W/m 11,2 C 25,8 C 4,0 km/h (1 Bft) 0,00 %
23.08.2015 15:15 25,8 C 39 % 1009,1 hPa 0,0 l/m 10,8 km/h (2 Bft) O-SO 123 5 min 0,000 mm 3,0 UV-I 875 W/m 10,8 C 24,9 C 15,8 km/h (3 Bft) 0,00 %
23.08.2015 15:20 25,9 C 39 % 1009,1 hPa 0,0 l/m 8,3 km/h (2 Bft) O 94 5 min 0,000 mm 3,0 UV-I 900 W/m 10,9 C 25,5 C 15,8 km/h (3 Bft) 0,00 %
23.08.2015 15:25 26,1 C 39 % 1009,1 hPa 0,0 l/m 6,5 km/h (2 Bft) O 86 5 min 0,000 mm 2,0 UV-I 854 W/m 11,0 C 26,1 C 11,9 km/h (2 Bft) 0,00 %
23.08.2015 15:30 26,2 C 38 % 1009,1 hPa 0,0 l/m 7,2 km/h (2 Bft) SW 217 5 min 0,000 mm 2,0 UV-I 825 W/m 10,7 C 26,0 C 15,8 km/h (3 Bft) 0,00 %
23.08.2015 15:35 26,2 C 39 % 1009,1 hPa 0,0 l/m 10,4 km/h (2 Bft) N 351 5 min 0,000 mm 1,0 UV-I 807 W/m 11,1 C 25,4 C 11,9 km/h (2 Bft) 0,00 %
23.08.2015 15:40 26,1 C 38 % 1009,0 hPa 0,0 l/m 5,8 km/h (2 Bft) O-SO 108 5 min 0,000 mm 1,0 UV-I 806 W/m 10,7 C 26,1 C 7,9 km/h (2 Bft) 0,00 %
23.08.2015 15:45 26,2 C 38 % 1008,8 hPa 0,0 l/m 7,2 km/h (2 Bft) O 88 5 min 0,000 mm 1,0 UV-I 801 W/m 10,7 C 26,0 C 11,9 km/h (2 Bft) 0,00 %
23.08.2015 15:50 26,3 C 38 % 1008,7 hPa 0,0 l/m 4,7 km/h (1 Bft) O 79 5 min 0,000 mm 1,0 UV-I 800 W/m 10,8 C 26,3 C 7,9 km/h (2 Bft) 0,00 %
23.08.2015 15:55 26,3 C 38 % 1008,7 hPa 0,0 l/m 13,3 km/h (3 Bft) S-SO 150 5 min 0,000 mm 1,0 UV-I 796 W/m 10,8 C 25,1 C 19,8 km/h (3 Bft) 0,00 %
23.08.2015 16:00 26,3 C 38 % 1008,7 hPa 0,0 l/m 6,8 km/h (2 Bft) O-SO 113 5 min 0,000 mm 1,0 UV-I 794 W/m 10,8 C 26,2 C 7,9 km/h (2 Bft) 0,00 %
23.08.2015 16:05 26,3 C 38 % 1008,9 hPa 0,0 l/m 4,0 km/h (1 Bft) O-NO 66 5 min 0,000 mm 1,0 UV-I 787 W/m 10,8 C 26,3 C 7,9 km/h (2 Bft) 0,00 %
23.08.2015 16:10 26,3 C 38 % 1008,6 hPa 0,0 l/m 7,9 km/h (2 Bft) O-SO 117 5 min 0,000 mm 1,0 UV-I 785 W/m 10,8 C 26,0 C 15,8 km/h (3 Bft) 0,00 %
23.08.2015 16:15 26,3 C 38 % 1008,5 hPa 0,0 l/m 2,2 km/h (1 Bft) N-NO 25 5 min 0,000 mm 1,0 UV-I 781 W/m 10,8 C 26,3 C 4,0 km/h (1 Bft) 0,00 %
23.08.2015 16:20 26,2 C 38 % 1008,7 hPa 0,0 l/m 4,0 km/h (1 Bft) O 87 5 min 0,000 mm 1,0 UV-I 773 W/m 10,7 C 26,2 C 4,0 km/h (1 Bft) 0,00 %
23.08.2015 16:25 26,2 C 38 % 1008,6 hPa 0,0 l/m 10,8 km/h (2 Bft) O 92 5 min 0,000 mm 1,0 UV-I 765 W/m 10,7 C 25,4 C 11,9 km/h (2 Bft) 0,00 %
23.08.2015 16:30 26,2 C 38 % 1008,8 hPa 0,0 l/m 6,8 km/h (2 Bft) O-SO 105 5 min 0,000 mm 1,0 UV-I 695 W/m 10,7 C 26,1 C 11,9 km/h (2 Bft) 0,00 %
23.08.2015 16:35 26,3 C 38 % 1008,7 hPa 0,0 l/m 4,7 km/h (1 Bft) NO 49 5 min 0,000 mm 1,0 UV-I 748 W/m 10,8 C 26,3 C 7,9 km/h (2 Bft) 0,00 %
23.08.2015 16:40 26,2 C 38 % 1008,6 hPa 0,0 l/m 5,8 km/h (2 Bft) N 4 5 min 0,000 mm 1,0 UV-I 706 W/m 10,7 C 26,2 C 7,9 km/h (2 Bft) 0,00 %
23.08.2015 16:45 26,2 C 38 % 1008,6 hPa 0,0 l/m 4,3 km/h (1 Bft) O 84 5 min 0,000 mm 1,0 UV-I 701 W/m 10,7 C 26,2 C 7,9 km/h (2 Bft) 0,00 %
23.08.2015 16:50 26,1 C 38 % 1008,7 hPa 0,0 l/m 1,8 km/h (1 Bft) NO 55 5 min 0,000 mm 1,0 UV-I 655 W/m 10,7 C 26,1 C 4,0 km/h (1 Bft) 0,00 %
23.08.2015 16:55 26,1 C 38 % 1008,6 hPa 0,0 l/m 6,8 km/h (2 Bft) SO 143 5 min 0,000 mm 1,0 UV-I 618 W/m 10,7 C 26,0 C 11,9 km/h (2 Bft) 0,00 %
23.08.2015 17:00 26,1 C 38 % 1008,5 hPa 0,0 l/m 6,5 km/h (2 Bft) O 94 0 min 0,000 mm 1,0 UV-I 184 W/m 10,7 C 26,1 C 7,9 km/h (2 Bft) 0,00 %
23.08.2015 17:05 26,1 C 38 % 1008,3 hPa 0,0 l/m 3,2 km/h (1 Bft) O-SO 115 0 min 0,000 mm 1,0 UV-I 185 W/m 10,7 C 26,1 C 7,9 km/h (2 Bft) 0,00 %
23.08.2015 17:10 26,0 C 38 % 1008,3 hPa 0,0 l/m 13,3 km/h (3 Bft) O-SO 112 0 min 0,000 mm 1,0 UV-I 188 W/m 10,6 C 24,7 C 15,8 km/h (3 Bft) 0,00 %
23.08.2015 17:15 26,1 C 37 % 1008,5 hPa 0,0 l/m 4,3 km/h (1 Bft) O-NO 73 5 min 0,000 mm 1,0 UV-I 641 W/m 10,3 C 26,1 C 7,9 km/h (2 Bft) 0,00 %
23.08.2015 17:20 26,2 C 36 % 1008,5 hPa 0,0 l/m 2,2 km/h (1 Bft) S 186 5 min 0,000 mm 1,0 UV-I 614 W/m 9,9 C 26,2 C 4,0 km/h (1 Bft) 0,00 %
23.08.2015 17:25 26,3 C 36 % 1008,4 hPa 0,0 l/m 9,7 km/h (2 Bft) NW 316 5 min 0,000 mm 1,0 UV-I 667 W/m 10,0 C 25,7 C 15,8 km/h (3 Bft) 0,00 %
23.08.2015 17:30 26,4 C 35 % 1008,2 hPa 0,0 l/m 10,8 km/h (2 Bft) O 96 5 min 0,000 mm 1,0 UV-I 638 W/m 9,7 C 25,6 C 11,9 km/h (2 Bft) 0,00 %
23.08.2015 17:35 26,5 C 35 % 1008,1 hPa 0,0 l/m 2,2 km/h (1 Bft) SW 214 5 min 0,000 mm 1,0 UV-I 620 W/m 9,8 C 26,5 C 4,0 km/h (1 Bft) 0,00 %
23.08.2015 17:40 26,5 C 36 % 1008,4 hPa 0,0 l/m 7,9 km/h (2 Bft) SO 129 5 min 0,000 mm 1,0 UV-I 653 W/m 10,2 C 26,2 C 11,9 km/h (2 Bft) 0,00 %
23.08.2015 17:45 26,3 C 37 % 1008,4 hPa 0,0 l/m 1,4 km/h (1 Bft) NO 34 5 min 0,000 mm 1,0 UV-I 682 W/m 10,4 C 26,3 C 4,0 km/h (1 Bft) 0,00 %
23.08.2015 17:50 26,0 C 37 % 1008,1 hPa 0,0 l/m 0,7 km/h (0 Bft) NO 34 5 min 0,000 mm 1,0 UV-I 624 W/m 10,2 C 26,0 C 4,0 km/h (1 Bft) 0,00 %
23.08.2015 17:55 25,8 C 39 % 1008,2 hPa 0,0 l/m 1,4 km/h (1 Bft) N-NW 348 5 min 0,000 mm 1,0 UV-I 612 W/m 10,8 C 25,8 C 4,0 km/h (1 Bft) 0,00 %
23.08.2015 18:00 25,7 C 37 % 1008,2 hPa 0,0 l/m 2,2 km/h (1 Bft) NW 319 5 min 0,000 mm 1,0 UV-I 590 W/m 9,9 C 25,7 C 4,0 km/h (1 Bft) 0,00 %
23.08.2015 18:05 25,5 C 37 % 1008,0 hPa 0,0 l/m 0,0 km/h (0 Bft) N-NO 27 5 min 0,000 mm 1,0 UV-I 586 W/m 9,7 C 25,5 C 0,0 km/h (0 Bft) 0,00 %
23.08.2015 18:10 25,3 C 38 % 1008,1 hPa 0,0 l/m 1,8 km/h (1 Bft) NO 52 5 min 0,000 mm 1,0 UV-I 569 W/m 9,9 C 25,3 C 4,0 km/h (1 Bft) 0,00 %
23.08.2015 18:15 25,3 C 38 % 1008,1 hPa 0,0 l/m 0,0 km/h (0 Bft) NO 46 5 min 0,000 mm 1,0 UV-I 556 W/m 9,9 C 25,3 C 0,0 km/h (0 Bft) 0,00 %
23.08.2015 18:20 25,4 C 38 % 1008,1 hPa 0,0 l/m 9,4 km/h (2 Bft) O-NO 72 5 min 0,000 mm 1,0 UV-I 537 W/m 10,0 C 24,7 C 11,9 km/h (2 Bft) 0,00 %
23.08.2015 18:25 25,3 C 39 % 1007,9 hPa 0,0 l/m 3,2 km/h (1 Bft) O-NO 76 5 min 0,000 mm 1,0 UV-I 522 W/m 10,3 C 25,3 C 4,0 km/h (1 Bft) 0,00 %
23.08.2015 18:30 25,1 C 40 % 1008,2 hPa 0,0 l/m 0,0 km/h (0 Bft) O-NO 67 5 min 0,000 mm 1,0 UV-I 507 W/m 10,5 C 25,1 C 0,0 km/h (0 Bft) 0,00 %
23.08.2015 18:35 24,8 C 40 % 1007,9 hPa 0,0 l/m 1,8 km/h (1 Bft) NO 56 5 min 0,000 mm 1,0 UV-I 484 W/m 10,3 C 24,8 C 4,0 km/h (1 Bft) 0,00 %
23.08.2015 18:40 24,7 C 40 % 1007,8 hPa 0,0 l/m 1,8 km/h (1 Bft) O-SO 113 5 min 0,000 mm 1,0 UV-I 460 W/m 10,2 C 24,7 C 4,0 km/h (1 Bft) 0,00 %
23.08.2015 18:45 24,6 C 40 % 1007,9 hPa 0,0 l/m 1,8 km/h (1 Bft) S-SO 165 5 min 0,000 mm 1,0 UV-I 436 W/m 10,1 C 24,6 C 4,0 km/h (1 Bft) 0,00 %
23.08.2015 18:50 24,6 C 40 % 1007,7 hPa 0,0 l/m 0,4 km/h (0 Bft) O-NO 68 5 min 0,000 mm 0,0 UV-I 416 W/m 10,1 C 24,6 C 4,0 km/h (1 Bft) 0,00 %
23.08.2015 18:55 24,6 C 40 % 1007,8 hPa 0,0 l/m 0,4 km/h (0 Bft) O 98 5 min 0,000 mm 0,0 UV-I 388 W/m 10,1 C 24,6 C 4,0 km/h (1 Bft) 0,00 %
23.08.2015 19:00 24,5 C 41 % 1007,7 hPa 0,0 l/m 0,7 km/h (0 Bft) O 88 5 min 0,000 mm 0,0 UV-I 369 W/m 10,4 C 24,5 C 4,0 km/h (1 Bft) 0,00 %
23.08.2015 19:05 24,3 C 42 % 1007,7 hPa 0,0 l/m 1,8 km/h (1 Bft) O-SO 114 5 min 0,000 mm 0,0 UV-I 328 W/m 10,6 C 24,3 C 4,0 km/h (1 Bft) 0,00 %
23.08.2015 19:10 24,2 C 41 % 1007,8 hPa 0,0 l/m 2,2 km/h (1 Bft) O 88 5 min 0,000 mm 0,0 UV-I 301 W/m 10,1 C 24,2 C 4,0 km/h (1 Bft) 0,00 %
23.08.2015 19:15 24,0 C 42 % 1007,8 hPa 0,0 l/m 0,0 km/h (0 Bft) SO 128 5 min 0,000 mm 0,0 UV-I 268 W/m 10,3 C 24,0 C 0,0 km/h (0 Bft) 0,00 %
23.08.2015 19:20 23,9 C 42 % 1007,7 hPa 0,0 l/m 0,0 km/h (0 Bft) O-NO 71 5 min 0,000 mm 0,0 UV-I 225 W/m 10,2 C 23,9 C 0,0 km/h (0 Bft) 0,00 %
23.08.2015 19:25 23,8 C 43 % 1007,8 hPa 0,0 l/m 0,4 km/h (0 Bft) O 92 5 min 0,000 mm 0,0 UV-I 169 W/m 10,5 C 23,8 C 4,0 km/h (1 Bft) 0,00 %
23.08.2015 19:30 23,5 C 44 % 1007,8 hPa 0,0 l/m 0,0 km/h (0 Bft) O 97 5 min 0,000 mm 0,0 UV-I 62 W/m 10,5 C 23,5 C 0,0 km/h (0 Bft) 0,00 %
23.08.2015 19:35 23,2 C 46 % 1007,9 hPa 0,0 l/m 0,0 km/h (0 Bft) O 99 5 min 0,000 mm 0,0 UV-I 46 W/m 10,9 C 23,2 C 0,0 km/h (0 Bft) 0,00 %
23.08.2015 19:40 22,9 C 48 % 1007,8 hPa 0,0 l/m 0,0 km/h (0 Bft) NO 56 5 min 0,000 mm 0,0 UV-I 28 W/m 11,3 C 22,9 C 0,0 km/h (0 Bft) 0,00 %
23.08.2015 19:45 22,4 C 49 % 1007,8 hPa 0,0 l/m 2,2 km/h (1 Bft) NO 53 0 min 0,000 mm 0,0 UV-I 17 W/m 11,2 C 22,4 C 4,0 km/h (1 Bft) 0,00 %
23.08.2015 19:50 21,9 C 50 % 1007,7 hPa 0,0 l/m 0,0 km/h (0 Bft) NO 44 0 min 0,000 mm 0,0 UV-I 7 W/m 11,0 C 21,9 C 0,0 km/h (0 Bft) 0,00 %
23.08.2015 19:55 21,6 C 51 % 1007,8 hPa 0,0 l/m 0,0 km/h (0 Bft) O-SO 122 0 min 0,000 mm 0,0 UV-I 3 W/m 11,0 C 21,6 C 0,0 km/h (0 Bft) 0,00 %
23.08.2015 20:00 21,3 C 52 % 1007,8 hPa 0,0 l/m 0,0 km/h (0 Bft) O-NO 75 0 min 0,000 mm 0,0 UV-I 0 W/m 11,0 C 21,3 C 0,0 km/h (0 Bft) 0,00 %
23.08.2015 20:05 21,0 C 55 % 1007,7 hPa 0,0 l/m 0,0 km/h (0 Bft) SO 129 0 min 0,000 mm 0,0 UV-I 0 W/m 11,6 C 21,0 C 0,0 km/h (0 Bft) 0,00 %
23.08.2015 20:10 20,7 C 56 % 1008,0 hPa 0,0 l/m 0,0 km/h (0 Bft) NO 47 0 min 0,000 mm 0,0 UV-I 0 W/m 11,6 C 20,7 C 0,0 km/h (0 Bft) 0,00 %
23.08.2015 20:15 20,4 C 55 % 1008,0 hPa 0,0 l/m 0,0 km/h (0 Bft) O-NO 59 0 min 0,000 mm 0,0 UV-I 0 W/m 11,1 C 20,4 C 0,0 km/h (0 Bft) 0,00 %
23.08.2015 20:20 20,1 C 58 % 1008,0 hPa 0,0 l/m 0,0 km/h (0 Bft) NO 41 0 min 0,000 mm 0,0 UV-I 0 W/m 11,6 C 20,1 C 0,0 km/h (0 Bft) 0,00 %
23.08.2015 20:25 19,9 C 60 % 1007,9 hPa 0,0 l/m 0,0 km/h (0 Bft) N-NO 26 0 min 0,000 mm 0,0 UV-I 0 W/m 11,9 C 19,9 C 0,0 km/h (0 Bft) 0,00 %
23.08.2015 20:30 19,8 C 59 % 1008,1 hPa 0,0 l/m 0,0 km/h (0 Bft) O-NO 74 0 min 0,000 mm 0,0 UV-I 0 W/m 11,6 C 19,8 C 0,0 km/h (0 Bft) 0,00 %
23.08.2015 20:35 19,6 C 60 % 1008,1 hPa 0,0 l/m 0,0 km/h (0 Bft) NO 54 0 min 0,000 mm 0,0 UV-I 0 W/m 11,6 C 19,6 C 0,0 km/h (0 Bft) 0,00 %
23.08.2015 20:40 19,4 C 60 % 1008,3 hPa 0,0 l/m 0,0 km/h (0 Bft) O 89 0 min 0,000 mm 0,0 UV-I 0 W/m 11,4 C 19,4 C 0,0 km/h (0 Bft) 0,00 %
23.08.2015 20:45 19,2 C 61 % 1008,2 hPa 0,0 l/m 0,0 km/h (0 Bft) O 90 0 min 0,000 mm 0,0 UV-I 0 W/m 11,5 C 19,2 C 0,0 km/h (0 Bft) 0,00 %
23.08.2015 20:50 19,2 C 61 % 1008,3 hPa 0,0 l/m 0,0 km/h (0 Bft) O-NO 60 0 min 0,000 mm 0,0 UV-I 0 W/m 11,5 C 19,2 C 0,0 km/h (0 Bft) 0,00 %
23.08.2015 20:55 19,1 C 62 % 1008,4 hPa 0,0 l/m 0,0 km/h (0 Bft) O 85 0 min 0,000 mm 0,0 UV-I 0 W/m 11,6 C 19,1 C 0,0 km/h (0 Bft) 0,00 %
23.08.2015 21:00 19,1 C 62 % 1008,3 hPa 0,0 l/m 1,8 km/h (1 Bft) O-SO 120 0 min 0,000 mm 0,0 UV-I 0 W/m 11,6 C 19,1 C 4,0 km/h (1 Bft) 0,00 %
23.08.2015 21:05 19,0 C 61 % 1008,3 hPa 0,0 l/m 0,0 km/h (0 Bft) SO 129 0 min 0,000 mm 0,0 UV-I 0 W/m 11,3 C 19,0 C 0,0 km/h (0 Bft) 0,00 %
23.08.2015 21:10 19,0 C 61 % 1008,3 hPa 0,0 l/m 0,0 km/h (0 Bft) O 98 0 min 0,000 mm 0,0 UV-I 0 W/m 11,3 C 19,0 C 0,0 km/h (0 Bft) 0,00 %
23.08.2015 21:15 18,9 C 62 % 1008,5 hPa 0,0 l/m 0,0 km/h (0 Bft) O-SO 110 0 min 0,000 mm 0,0 UV-I 0 W/m 11,5 C 18,9 C 0,0 km/h (0 Bft) 0,00 %
23.08.2015 21:20 18,9 C 62 % 1008,3 hPa 0,0 l/m 0,0 km/h (0 Bft) O-NO 67 0 min 0,000 mm 0,0 UV-I 0 W/m 11,5 C 18,9 C 0,0 km/h (0 Bft) 0,00 %
23.08.2015 21:25 18,8 C 62 % 1008,5 hPa 0,0 l/m 0,0 km/h (0 Bft) O-NO 69 0 min 0,000 mm 0,0 UV-I 0 W/m 11,4 C 18,8 C 0,0 km/h (0 Bft) 0,00 %
23.08.2015 21:30 18,8 C 60 % 1008,5 hPa 0,0 l/m 0,0 km/h (0 Bft) SO 135 0 min 0,000 mm 0,0 UV-I 0 W/m 10,9 C 18,8 C 0,0 km/h (0 Bft) 0,00 %
23.08.2015 21:35 18,9 C 59 % 1008,5 hPa 0,0 l/m 0,4 km/h (0 Bft) N-NO 30 0 min 0,000 mm 0,0 UV-I 0 W/m 10,7 C 18,9 C 4,0 km/h (1 Bft) 0,00 %
23.08.2015 21:40 19,0 C 59 % 1008,3 hPa 0,0 l/m 0,0 km/h (0 Bft) O 83 0 min 0,000 mm 0,0 UV-I 0 W/m 10,8 C 19,0 C 0,0 km/h (0 Bft) 0,00 %
23.08.2015 21:45 19,0 C 60 % 1008,6 hPa 0,0 l/m 0,0 km/h (0 Bft) O 89 0 min 0,000 mm 0,0 UV-I 0 W/m 11,1 C 19,0 C 0,0 km/h (0 Bft) 0,00 %
23.08.2015 21:50 18,9 C 61 % 1008,7 hPa 0,0 l/m 0,0 km/h (0 Bft) O 87 0 min 0,000 mm 0,0 UV-I 0 W/m 11,2 C 18,9 C 0,0 km/h (0 Bft) 0,00 %
23.08.2015 21:55 18,7 C 61 % 1008,6 hPa 0,0 l/m 0,0 km/h (0 Bft) O-SO 123 0 min 0,000 mm 0,0 UV-I 0 W/m 11,0 C 18,7 C 0,0 km/h (0 Bft) 0,00 %
23.08.2015 22:00 18,7 C 61 % 1008,6 hPa 0,0 l/m 0,0 km/h (0 Bft) O-NO 75 0 min 0,000 mm 0,0 UV-I 0 W/m 11,0 C 18,7 C 0,0 km/h (0 Bft) 0,00 %
23.08.2015 22:05 18,6 C 62 % 1008,5 hPa 0,0 l/m 0,0 km/h (0 Bft) O-NO 75 0 min 0,000 mm 0,0 UV-I 0 W/m 11,2 C 18,6 C 0,0 km/h (0 Bft) 0,00 %
23.08.2015 22:10 18,4 C 62 % 1008,5 hPa 0,0 l/m 2,9 km/h (1 Bft) O-SO 105 0 min 0,000 mm 0,0 UV-I 0 W/m 11,0 C 18,4 C 4,0 km/h (1 Bft) 0,00 %
23.08.2015 22:15 18,0 C 63 % 1008,5 hPa 0,0 l/m 1,4 km/h (1 Bft) O-SO 108 0 min 0,000 mm 0,0 UV-I 0 W/m 10,8 C 18,0 C 4,0 km/h (1 Bft) 0,00 %
23.08.2015 22:20 17,8 C 64 % 1008,5 hPa 0,0 l/m 0,0 km/h (0 Bft) O 84 0 min 0,000 mm 0,0 UV-I 0 W/m 10,9 C 17,8 C 0,0 km/h (0 Bft) 0,00 %
23.08.2015 22:25 17,7 C 64 % 1008,4 hPa 0,0 l/m 6,5 km/h (2 Bft) O 101 0 min 0,000 mm 0,0 UV-I 0 W/m 10,8 C 17,7 C 7,9 km/h (2 Bft) 0,00 %
23.08.2015 22:30 17,7 C 64 % 1008,5 hPa 0,0 l/m 0,4 km/h (0 Bft) O 82 0 min 0,000 mm 0,0 UV-I 0 W/m 10,8 C 17,7 C 4,0 km/h (1 Bft) 0,00 %
23.08.2015 22:35 17,7 C 64 % 1008,5 hPa 0,0 l/m 0,0 km/h (0 Bft) O 91 0 min 0,000 mm 0,0 UV-I 0 W/m 10,8 C 17,7 C 0,0 km/h (0 Bft) 0,00 %
23.08.2015 22:40 17,7 C 64 % 1008,3 hPa 0,0 l/m 0,0 km/h (0 Bft) O-NO 68 0 min 0,000 mm 0,0 UV-I 0 W/m 10,8 C 17,7 C 0,0 km/h (0 Bft) 0,00 %
23.08.2015 22:45 17,6 C 64 % 1008,3 hPa 0,0 l/m 0,7 km/h (0 Bft) O-NO 60 0 min 0,000 mm 0,0 UV-I 0 W/m 10,7 C 17,6 C 4,0 km/h (1 Bft) 0,00 %
23.08.2015 22:50 17,6 C 65 % 1008,3 hPa 0,0 l/m 0,0 km/h (0 Bft) O-SO 121 0 min 0,000 mm 0,0 UV-I 0 W/m 10,9 C 17,6 C 0,0 km/h (0 Bft) 0,00 %
23.08.2015 22:55 17,5 C 65 % 1008,3 hPa 0,0 l/m 0,0 km/h (0 Bft) O-NO 68 0 min 0,000 mm 0,0 UV-I 0 W/m 10,8 C 17,5 C 0,0 km/h (0 Bft) 0,00 %
23.08.2015 23:00 17,4 C 65 % 1008,4 hPa 0,0 l/m 0,0 km/h (0 Bft) O-NO 58 0 min 0,000 mm 0,0 UV-I 0 W/m 10,8 C 17,4 C 0,0 km/h (0 Bft) 0,00 %
23.08.2015 23:05 17,3 C 65 % 1008,5 hPa 0,0 l/m 0,0 km/h (0 Bft) NO 51 0 min 0,000 mm 0,0 UV-I 0 W/m 10,7 C 17,3 C 0,0 km/h (0 Bft) 0,00 %
23.08.2015 23:10 17,3 C 65 % 1008,8 hPa 0,0 l/m 0,0 km/h (0 Bft) NO 51 0 min 0,000 mm 0,0 UV-I 0 W/m 10,7 C 17,3 C 0,0 km/h (0 Bft) 0,00 %
23.08.2015 23:15 17,2 C 65 % 1009,0 hPa 0,0 l/m 0,0 km/h (0 Bft) NO 36 0 min 0,000 mm 0,0 UV-I 0 W/m 10,6 C 17,2 C 0,0 km/h (0 Bft) 0,00 %
23.08.2015 23:20 17,2 C 65 % 1008,9 hPa 0,0 l/m 0,0 km/h (0 Bft) NO 51 0 min 0,000 mm 0,0 UV-I 0 W/m 10,6 C 17,2 C 0,0 km/h (0 Bft) 0,00 %
23.08.2015 23:25 17,0 C 67 % 1008,8 hPa 0,0 l/m 0,0 km/h (0 Bft) O-NO 65 0 min 0,000 mm 0,0 UV-I 0 W/m 10,8 C 17,0 C 0,0 km/h (0 Bft) 0,00 %
23.08.2015 23:30 16,9 C 66 % 1008,8 hPa 0,0 l/m 0,0 km/h (0 Bft) O-NO 64 0 min 0,000 mm 0,0 UV-I 0 W/m 10,5 C 16,9 C 0,0 km/h (0 Bft) 0,00 %
23.08.2015 23:35 16,9 C 67 % 1008,7 hPa 0,0 l/m 0,0 km/h (0 Bft) NO 55 0 min 0,000 mm 0,0 UV-I 0 W/m 10,7 C 16,9 C 0,0 km/h (0 Bft) 0,00 %
23.08.2015 23:40 16,8 C 68 % 1008,8 hPa 0,0 l/m 0,0 km/h (0 Bft) O-NO 63 0 min 0,000 mm 0,0 UV-I 0 W/m 10,9 C 16,8 C 0,0 km/h (0 Bft) 0,00 %
23.08.2015 23:45 16,7 C 68 % 1008,7 hPa 0,0 l/m 0,0 km/h (0 Bft) O-NO 58 0 min 0,000 mm 0,0 UV-I 0 W/m 10,8 C 16,7 C 0,0 km/h (0 Bft) 0,00 %
23.08.2015 23:50 16,5 C 70 % 1009,1 hPa 0,0 l/m 0,0 km/h (0 Bft) NO 38 0 min 0,000 mm 0,0 UV-I 0 W/m 11,0 C 16,5 C 0,0 km/h (0 Bft) 0,00 %
23.08.2015 23:55 16,4 C 70 % 1008,8 hPa 0,0 l/m 0,0 km/h (0 Bft) NO 54 0 min 0,000 mm 0,0 UV-I 0 W/m 10,9 C 16,4 C 0,0 km/h (0 Bft) 0,00 %
_ Min-Zeit 04:34 17:30 18:50 - 00:04 - - - - - - 00:54 04:34 00:04 00:04
Minimum _ 10,7 C 35 % 1007,7 hPa - 0,0 km/h (0 Bft) - - - - - - 8,3 C 10,7 C 0,0 km/h (0 Bft) 0,00 %
_ Max-Zeit 17:35 05:39 00:19 00:04 14:50 - - 10:20 00:04 12:30 15:20 20:25 17:35 14:50 00:04
Maximum _ 26,5 C 90 % 1016,5 hPa 0,0 l/m 18,4 km/h
SO (3 Bft)
- - 6 min 0,000 mm 4,0 UV-I 900 W/m 11,9 C 26,5 C 24,1 km/h
SO (4 Bft)
0,00 %
Durchschnitt _ 18,6 C 61 % 1011,1 hPa #0,0 l/m 2,6 km/h (1 Bft) O - #11:21 h #0,000 mm 2,0 UV-I 487 W/m 10,1 C 18,5 C 4,7 km/h (1 Bft) 0,00 %